User: anonymous   Login
Location: Unspecified
(0.0000°N, 0.0000°E)
Time: 11:03:33
(UTC+00:00)
Language:

LQSAT - Orbit

View from above orbital plane
View from above orbital plane
View from above satellite
View from above satellite

Ground track
Ground track

The orbit data is extracted from the following two-line orbital elements,

1 40958U 15057A   17352.06744167  .00000010  00000-0  93777-5 0  9996
2 40958  97.9619  64.0075 0017666 193.0296 167.0460 14.73006850118184
Epoch (UTC): 18 December 2017 01:37:06
Eccentricity: 0.0017666
inclination: 97.9619°
perigee height: 639 km
apogee height: 664 km
right ascension of ascending node: 64.0075°
argument of perigee: 193.0296°
revolutions per day: 14.73006850
mean anomaly at epoch: 167.0460°
orbit number at epoch: 11818

The dashed part of the orbit path shows where the satellite is in the earth's shadow,  

DLR